Flag for U.S.A. Weather past 2 weeks in Juneau, Alaska, U.S.A.

Now
55 °F

Light rain. Mostly cloudy.


Feels Like: 55 °F
Forecast: 49 / 55 °F
Wind: No wind

Location: Juneau International Airport

Current Time: Aug 29, 2014 at 5:26:06 PM

Latest Report: Aug 29, 2014 at 4:53 PM


Visibility: 10 mi

Pressure: 29.55 "Hg

Humidity: 90%

Dew point: 52 °F

Location of JuneauLocation

Historic Weather in Juneau — Graph

°F

Juneau temperature yesterday

Maximum temperature yesterday: 58 °F (at 2:53 PM)
Minimum temperature yesterday: 50 °F (at 3:53 AM)
Average temperature yesterday: 54 °F

Past Weeks' High & Low Weather Summary

 TemperatureHumidityPressure
High71 °F (Aug 21, 3:53 PM)100% (Aug 15, 9:56 PM)30.21 "Hg (Aug 15, 9:56 PM)
Low44 °F (Aug 20, 5:53 AM)47% (Aug 21, 2:53 PM)29.55 "Hg (Aug 29, 1:53 PM)
Average56 °F88%30.00 "Hg
* Reported Aug 14 3:53 PM — Aug 29 3:53 PM, Juneau, Weather by CustomWeather, © 2014

Note: Actual official high and low records may vary slightly from our data, if they occured in-between our weather recording intervals... More about our weather records

Advertising

Juneau weather history for previous 24 hours

 ConditionsComfort  
Time TempWeatherWind HumidityBarometerVisibility
3:53 PM
Aug 29
54 °FLight rain. More clouds than sun.No wind90%29.56 "Hg10 mi
2:53 PM54 °FLight rain. More clouds than sun.5 mph90%29.56 "Hg8 mi
1:53 PM55 °FLight rain. Cloudy.8 mph87%29.55 "Hg10 mi
12:53 PM54 °FMostly cloudy.7 mph93%29.56 "Hg10 mi
10:53 AM53 °FLight rain. Mostly cloudy.6 mph89%29.58 "Hg10 mi
9:53 AM53 °FMostly cloudy.No wind93%29.60 "Hg10 mi
8:53 AM52 °FLight rain. Mostly cloudy.3 mph93%29.61 "Hg9 mi
7:53 AM51 °FLight rain. Mostly cloudy.3 mph96%29.63 "Hg10 mi
6:53 AM50 °FLight rain. Mostly cloudy.10 mph96%29.64 "Hg10 mi
5:53 AM50 °FLight rain. Mostly cloudy.10 mph96%29.65 "Hg10 mi
4:53 AM50 °FLight rain. Mostly cloudy.3 mph96%29.66 "Hg10 mi
3:53 AM51 °FLight rain. Mostly cloudy.8 mph92%29.68 "Hg10 mi
2:53 AM52 °FLight rain. Mostly cloudy.13 mph89%29.70 "Hg10 mi
1:53 AM52 °FLight rain. Overcast.14 mph93%29.72 "Hg10 mi
12:53 AM52 °FLight rain. Mostly cloudy.9 mph93%29.74 "Hg10 mi
11:53 PM
Aug 28
53 °FLight rain. Mostly cloudy.10 mph89%29.76 "Hg10 mi
10:53 PM52 °FLight rain. Mostly cloudy.13 mph93%29.78 "Hg10 mi
9:53 PM54 °FLight rain. Mostly cloudy.15 mph83%29.79 "Hg10 mi
8:53 PM54 °FMostly cloudy.10 mph86%29.81 "Hg10 mi
7:53 PM54 °FMostly cloudy.8 mph86%29.82 "Hg10 mi
6:53 PM55 °FMostly cloudy.9 mph83%29.84 "Hg10 mi
5:53 PM57 °FCloudy.12 mph78%29.86 "Hg10 mi
Weather by CustomWeather, © 2014

See weather overviewHow to use our weather pages